Location: Florence
(33.9745°N, 118.2481°W)
Time: 19:45:36
(UTC+00:00)

Envisat - Pass Details

Date: 23 March 2023
Orbit: 763 x 765 km, 98.2° (Epoch: 06 June)

Event Time Altitude Azimuth Distance (km) Brightness Sun altitude
Rises 12:30:24 0° 1° (N) 3,236 6.4 -17.7°
Reaches altitude 10° 12:32:52 10° 352° (N) 2,307 5.5 -17.2°
Maximum altitude 12:37:25 34° 289° (WNW) 1,242 3.6 -16.3°
Enters shadow 12:39:23 25° 248° (WSW) 1,500 3.9 -15.9°
